SR8WXE Weather Reports


Display with metric or nautical units.
time (UTC)temp
F
wind
direction
speed
MPH
gust
MPH
rain 1hr
in
rain 24hr
in
rain mn
in
humidity
%
barometer
mb
20260507003741 61 194 0.0 4.0 0.00 0.00 0.00 57 1008.7
20260507003240 60 167 0.0 3.0 0.00 0.00 0.00 58 1008.6
20260507002740 59 185 0.0 4.0 0.00 0.00 0.00 60 1008.6
20260507002240 58 171 0.0 4.0 0.00 0.00 0.00 63 1008.6
20260507001739 57 153 0.0 4.0 0.00 0.00 0.00 65 1008.5
20260507001239 57 187 0.0 0.0 0.00 0.00 0.00 65 1008.5
20260507000739 57 187 0.0 0.0 0.00 0.00 0.00 64 1008.5
20260507000239 57 187 0.0 0.0 0.00 0.00 0.00 63 1008.5
20260506235738 58 187 0.0 0.0 0.00 0.00 0.00 62 1008.4
20260506235238 58 187 0.0 0.0 0.00 0.00 0.00 61 1008.5
20260506234738 59 187 0.0 0.0 0.00 0.00 0.00 59 1008.4
20260506234238 60 187 0.0 0.0 0.00 0.00 0.00 57 1008.5
20260506233737 60 187 0.0 0.0 0.00 0.00 0.00 56 1008.5
20260506233237 61 187 0.0 0.0 0.00 0.00 0.00 55 1008.5
20260506232737 61 187 0.0 0.0 0.00 0.00 0.00 54 1008.6
20260506232236 61 187 0.0 0.0 0.00 0.00 0.00 54 1008.5
20260506231736 61 187 0.0 0.0 0.00 0.00 0.00 54 1008.5
20260506231236 61 187 0.0 1.0 0.00 0.00 0.00 53 1008.5
20260506230736 61 206 0.0 2.0 0.00 0.00 0.00 53 1008.5
20260506230235 61 203 0.0 1.0 0.00 0.00 0.00 53 1008.6
20260506225735 61 165 0.0 2.0 0.00 0.00 0.00 53 1008.5
20260506225235 61 196 0.0 1.0 0.00 0.00 0.00 53 1008.5
20260506224734 62 192 0.0 1.0 0.00 0.00 0.00 53 1008.5
20260506224234 62 220 0.0 2.0 0.00 0.00 0.00 52 1008.5
20260506223734 62 217 0.0 1.0 0.00 0.00 0.00 52 1008.5
20260506223234 62 140 0.0 3.0 0.00 0.00 0.00 52 1008.5
20260506222733 62 246 1.0 5.0 0.00 0.00 0.00 52 1008.5
20260506222233 62 196 0.0 2.0 0.00 0.00 0.00 52 1008.4
20260506221733 62 201 0.0 4.0 0.00 0.00 0.00 53 1008.3
20260506221232 61 174 0.0 5.0 0.00 0.00 0.00 54 1008.4
20260506220732 61 240 1.0 3.0 0.00 0.00 0.00 55 1008.4
20260506220232 61 201 1.0 7.0 0.00 0.00 0.00 55 1008.4
20260506215732 61 216 4.0 4.0 0.00 0.00 0.00 56 1008.4
20260506215231 61 170 0.0 1.0 0.00 0.00 0.00 55 1008.4
20260506214731 61 156 0.0 2.0 0.00 0.00 0.00 54 1008.4
20260506214231 61 119 0.0 0.0 0.00 0.00 0.00 54 1008.4
20260506213730 61 119 0.0 0.0 0.00 0.00 0.00 55 1008.3
20260506213230 61 119 0.0 0.0 0.00 0.00 0.00 55 1008.3
20260506212730 61 119 0.0 0.0 0.00 0.00 0.00 55 1008.3
20260506212230 61 119 0.0 1.0 0.00 0.00 0.00 54 1008.3
20260506211729 62 92 0.0 0.0 0.00 0.00 0.00 53 1008.3
20260506211229 62 92 0.0 1.0 0.00 0.00 0.00 52 1008.3
20260506210729 62 120 0.0 1.0 0.00 0.00 0.00 52 1008.2
20260506210228 62 170 1.0 3.0 0.00 0.00 0.00 51 1008.2
20260506205728 62 112 0.0 2.0 0.00 0.00 0.00 51 1008.2
20260506205228 63 109 0.0 1.0 0.00 0.00 0.00 50 1008.2
20260506204728 63 215 0.0 0.0 0.00 0.00 0.00 50 1008.1
20260506204227 63 215 0.0 2.0 0.00 0.00 0.00 49 1008.1
20260506203727 63 226 0.0 1.0 0.00 0.00 0.00 49 1008.1
20260506203227 63 111 0.0 3.0 0.00 0.00 0.00 49 1008.0
20260506202726 63 195 0.0 2.0 0.00 0.00 0.00 49 1008.0
20260506202226 64 212 0.0 2.0 0.00 0.00 0.00 48 1008.0
20260506201726 64 172 0.0 1.0 0.00 0.00 0.00 48 1008.0
20260506201226 64 187 0.0 1.0 0.00 0.00 0.00 47 1007.9
20260506200725 64 139 0.0 1.0 0.00 0.00 0.00 47 1007.9
20260506200225 64 150 0.0 3.0 0.00 0.00 0.00 47 1007.9
20260506195725 65 127 0.0 0.0 0.00 0.00 0.00 46 1007.9
20260506195225 65 127 0.0 1.0 0.00 0.00 0.00 46 1007.9
20260506194724 65 170 0.0 5.0 0.00 0.00 0.00 46 1007.9
20260506194224 65 205 0.0 5.0 0.00 0.00 0.00 47 1007.9
20260506193724 65 137 0.0 3.0 0.00 0.00 0.00 46 1007.8
20260506193223 65 210 0.0 4.0 0.00 0.00 0.00 46 1007.9
20260506192723 65 172 1.0 3.0 0.00 0.00 0.00 46 1007.9
20260506192223 65 163 0.0 3.0 0.00 0.00 0.00 45 1007.8
20260506191723 66 147 1.0 6.0 0.00 0.00 0.00 45 1007.9
20260506191222 66 220 0.0 5.0 0.00 0.00 0.00 45 1007.8
20260506190722 66 154 1.0 6.0 0.00 0.00 0.00 45 1007.8
20260506190222 66 196 1.0 4.0 0.00 0.00 0.00 44 1007.8
20260506185721 66 205 0.0 7.0 0.00 0.00 0.00 44 1007.8
20260506185221 66 216 1.0 3.0 0.00 0.00 0.00 44 1007.8
20260506184721 67 123 0.0 6.0 0.00 0.00 0.00 43 1007.7
20260506184221 67 189 0.0 5.0 0.00 0.00 0.00 43 1007.6
20260506183720 67 216 4.0 6.0 0.00 0.00 0.00 43 1007.6
20260506183220 67 188 2.0 9.0 0.00 0.00 0.00 43 1007.4
20260506182720 67 210 1.0 7.0 0.00 0.00 0.00 42 1007.4
20260506182219 68 130 0.0 5.0 0.00 0.00 0.00 42 1007.4
20260506181719 68 201 4.0 7.0 0.00 0.00 0.00 41 1007.3
20260506181219 68 199 2.0 8.0 0.00 0.00 0.00 41 1007.3
20260506180719 68 171 0.0 6.0 0.00 0.00 0.00 41 1007.3
20260506180218 68 292 1.0 8.0 0.00 0.00 0.00 40 1007.2
20260506175718 69 194 1.0 4.0 0.00 0.00 0.00 40 1007.1
20260506175218 69 184 1.0 8.0 0.00 0.00 0.00 39 1007.1
20260506174717 69 149 0.0 6.0 0.00 0.00 0.00 39 1007.1
20260506174217 69 188 5.0 7.0 0.00 0.00 0.00 39 1007.0
20260506173717 70 222 3.0 7.0 0.00 0.00 0.00 38 1007.0
20260506173217 70 165 0.0 4.0 0.00 0.00 0.00 38 1007.0
20260506172716 70 227 2.0 6.0 0.00 0.00 0.00 37 1007.0
20260506172216 71 187 0.0 7.0 0.00 0.00 0.00 36 1006.9
20260506171716 71 247 2.0 7.0 0.00 0.00 0.00 36 1006.9
20260506171215 71 188 0.0 8.0 0.00 0.00 0.00 36 1006.9
20260506170715 71 220 1.0 9.0 0.00 0.00 0.00 35 1006.9
20260506170215 71 226 2.0 11.0 0.00 0.00 0.00 34 1006.9
20260506165715 71 198 4.0 9.0 0.00 0.00 0.00 35 1007.0
20260506165214 71 232 5.0 12.0 0.00 0.00 0.00 35 1007.0
20260506164714 71 178 3.0 11.0 0.00 0.00 0.00 35 1007.0
20260506164214 71 225 5.0 10.0 0.00 0.00 0.00 35 1006.9
20260506163713 71 189 3.0 13.0 0.00 0.00 0.00 34 1006.9
20260506163213 72 212 4.0 11.0 0.00 0.00 0.00 34 1006.8
20260506162713 72 243 5.0 15.0 0.00 0.00 0.00 33 1006.8
20260506162213 73 223 2.0 15.0 0.00 0.00 0.00 33 1006.8
20260506161712 73 232 13.0 13.0 0.00 0.00 0.00 32 1006.8
20260506161212 73 208 12.0 12.0 0.00 0.00 0.00 32 1006.8
20260506160712 73 216 8.0 14.0 0.00 0.00 0.00 31 1006.8
20260506160211 73 232 3.0 15.0 0.00 0.00 0.00 31 1006.9
20260506155711 72 230 8.0 12.0 0.00 0.00 0.00 31 1007.0
20260506155211 72 161 2.0 13.0 0.00 0.00 0.00 32 1007.0
20260506154711 73 203 4.0 12.0 0.00 0.00 0.00 31 1007.0
20260506154210 73 219 2.0 15.0 0.00 0.00 0.00 29 1007.1
20260506153710 74 229 3.0 13.0 0.00 0.00 0.00 29 1007.0
20260506153210 74 264 5.0 19.0 0.00 0.00 0.00 29 1007.1
20260506152710 74 208 2.0 14.0 0.00 0.00 0.00 28 1007.1
20260506152209 74 208 6.0 19.0 0.00 0.00 0.00 27 1007.0
20260506151709 74 223 5.0 13.0 0.00 0.00 0.00 27 1007.0
20260506151209 74 216 2.0 14.0 0.00 0.00 0.00 27 1007.0
20260506150708 74 174 4.0 18.0 0.00 0.00 0.00 27 1007.1
20260506150208 74 220 5.0 15.0 0.00 0.00 0.00 27 1007.1
20260506145708 74 188 9.0 17.0 0.00 0.00 0.00 26 1007.1
20260506145208 74 244 9.0 12.0 0.00 0.00 0.00 28 1007.1
20260506144707 74 358 3.0 17.0 0.00 0.00 0.00 29 1007.1
20260506144207 74 216 9.0 18.0 0.00 0.00 0.00 29 1007.1
20260506143707 74 227 10.0 21.0 0.00 0.00 0.00 28 1007.2
20260506143206 74 232 4.0 16.0 0.00 0.00 0.00 29 1007.1
20260506142706 74 216 4.0 17.0 0.00 0.00 0.00 29 1007.1
20260506142206 74 167 8.0 14.0 0.00 0.00 0.00 29 1007.1
20260506141706 74 232 1.0 17.0 0.00 0.00 0.00 30 1007.1
20260506141205 74 213 4.0 12.0 0.00 0.00 0.00 29 1007.2
20260506140705 74 188 9.0 19.0 0.00 0.00 0.00 29 1007.3
20260506140205 74 219 7.0 12.0 0.00 0.00 0.00 31 1007.3
20260506135704 74 108 6.0 15.0 0.00 0.00 0.00 29 1007.2
20260506135204 75 222 6.0 16.0 0.00 0.00 0.00 29 1007.3
20260506134704 75 232 5.0 13.0 0.00 0.00 0.00 29 1007.3
20260506134204 75 157 9.0 16.0 0.00 0.00 0.00 28 1007.4
20260506133703 75 213 10.0 14.0 0.00 0.00 0.00 27 1007.4
20260506133203 75 237 7.0 15.0 0.00 0.00 0.00 29 1007.4
20260506132703 75 202 8.0 22.0 0.00 0.00 0.00 29 1007.4
20260506132202 75 220 10.0 13.0 0.00 0.00 0.00 29 1007.4
20260506131703 75 253 5.0 13.0 0.00 0.00 0.00 28 1007.4
20260506131202 75 187 8.0 18.0 0.00 0.00 0.00 29 1007.6
20260506130702 75 194 5.0 17.0 0.00 0.00 0.00 29 1007.6
20260506130201 74 185 9.0 16.0 0.00 0.00 0.00 29 1007.6
20260506125701 74 225 11.0 19.0 0.00 0.00 0.00 28 1007.7
20260506125201 75 185 6.0 16.0 0.00 0.00 0.00 28 1007.6
20260506124700 75 198 4.0 18.0 0.00 0.00 0.00 28 1007.7
20260506124200 75 196 15.0 16.0 0.00 0.00 0.00 29 1007.8
20260506123700 74 206 5.0 16.0 0.00 0.00 0.00 29 1007.8
20260506123200 74 143 4.0 18.0 0.00 0.00 0.00 30 1007.9
20260506122659 74 229 9.0 16.0 0.00 0.00 0.00 29 1008.0
20260506122159 74 261 5.0 23.0 0.00 0.00 0.00 29 1008.1
20260506121659 74 222 10.0 19.0 0.00 0.00 0.00 31 1008.0
20260506121158 74 219 9.0 19.0 0.00 0.00 0.00 30 1008.1
20260506120658 74 270 6.0 14.0 0.00 0.00 0.00 31 1008.1
20260506120158 74 222 6.0 23.0 0.00 0.00 0.00 30 1008.2
20260506115658 74 229 15.0 25.0 0.00 0.00 0.00 29 1008.3
20260506115157 74 261 9.0 19.0 0.00 0.00 0.00 28 1008.4
20260506114657 75 209 9.0 19.0 0.00 0.00 0.00 31 1008.4
20260506114157 75 157 10.0 15.0 0.00 0.00 0.00 30 1008.5
20260506113656 75 254 5.0 12.0 0.00 0.00 0.00 31 1008.4
20260506113156 74 258 4.0 17.0 0.00 0.00 0.00 31 1008.4
20260506112656 74 153 5.0 21.0 0.00 0.00 0.00 30 1008.6
20260506112156 74 182 11.0 17.0 0.00 0.00 0.00 32 1008.4
20260506111655 74 178 5.0 19.0 0.00 0.00 0.00 31 1008.6
20260506111155 74 220 9.0 15.0 0.00 0.00 0.00 31 1008.5
20260506110655 73 217 8.0 21.0 0.00 0.00 0.00 31 1008.7
20260506110155 73 199 7.0 21.0 0.00 0.00 0.00 31 1008.6
20260506105654 73 209 18.0 20.0 0.00 0.00 0.00 31 1008.6
20260506105154 73 236 12.0 28.0 0.00 0.00 0.00 32 1008.7
20260506104654 73 216 11.0 22.0 0.00 0.00 0.00 31 1008.7
20260506104153 73 219 7.0 24.0 0.00 0.00 0.00 31 1008.7
20260506103653 73 198 14.0 27.0 0.00 0.00 0.00 30 1008.7
20260506103153 73 220 5.0 27.0 0.00 0.00 0.00 31 1008.7
20260506102653 73 206 13.0 24.0 0.00 0.00 0.00 31 1008.7
20260506102152 73 255 6.0 21.0 0.00 0.00 0.00 30 1008.6
20260506101652 73 225 6.0 19.0 0.00 0.00 0.00 31 1008.7
20260506101152 73 215 8.0 18.0 0.00 0.00 0.00 31 1008.7
20260506100651 73 187 13.0 20.0 0.00 0.00 0.00 30 1008.7
20260506100151 73 225 7.0 26.0 0.00 0.00 0.00 30 1008.8
20260506095651 73 209 14.0 18.0 0.00 0.00 0.00 29 1008.7
20260506095151 73 196 12.0 20.0 0.00 0.00 0.00 29 1008.7
20260506094650 72 272 5.0 25.0 0.00 0.00 0.00 29 1008.7
20260506094150 73 139 8.0 18.0 0.00 0.00 0.00 29 1008.7
20260506093650 72 230 18.0 22.0 0.00 0.00 0.00 29 1008.8
20260506093149 72 191 14.0 24.0 0.00 0.00 0.00 31 1008.8
20260506092649 72 212 5.0 25.0 0.00 0.00 0.00 31 1008.8
20260506092149 72 180 6.0 15.0 0.00 0.00 0.00 33 1008.8
20260506091649 72 246 2.0 20.0 0.00 0.00 0.00 32 1008.8
20260506091148 71 175 7.0 18.0 0.00 0.00 0.00 33 1008.8
20260506090648 71 223 9.0 19.0 0.00 0.00 0.00 32 1008.9
20260506090148 72 136 17.0 20.0 0.00 0.00 0.00 32 1008.9
20260506085647 71 175 11.0 15.0 0.00 0.00 0.00 33 1008.7
20260506085147 71 209 11.0 20.0 0.00 0.00 0.00 32 1008.8
20260506084647 71 165 9.0 23.0 0.00 0.00 0.00 32 1008.7
20260506084147 71 192 6.0 22.0 0.00 0.00 0.00 32 1008.7
20260506083646 71 236 9.0 19.0 0.00 0.00 0.00 32 1008.7
20260506083146 71 181 6.0 16.0 0.00 0.00 0.00 34 1008.6
20260506082646 71 210 11.0 19.0 0.00 0.00 0.00 32 1008.7
20260506082146 71 229 10.0 26.0 0.00 0.00 0.00 32 1008.6
20260506081645 70 156 6.0 20.0 0.00 0.00 0.00 33 1008.6
20260506081145 70 215 8.0 19.0 0.00 0.00 0.00 34 1008.6
20260506080645 70 172 9.0 22.0 0.00 0.00 0.00 33 1008.6
20260506080144 70 254 5.0 24.0 0.00 0.00 0.00 35 1008.6
20260506073143 69 172 9.0 22.0 0.00 0.00 0.00 34 1008.6
20260506072642 69 260 6.0 24.0 0.00 0.00 0.00 35 1008.6
20260506072142 69 196 3.0 19.0 0.00 0.00 0.00 36 1008.5
20260506071642 69 217 5.0 18.0 0.00 0.00 0.00 37 1008.5
20260506071142 68 217 14.0 19.0 0.00 0.00 0.00 36 1008.5
20260506070641 68 206 9.0 20.0 0.00 0.00 0.00 38 1008.4
20260506070141 68 181 3.0 19.0 0.00 0.00 0.00 38 1008.4
20260506062139 65 142 0.0 12.0 0.00 0.00 0.00 41 1008.5
20260506061638 65 198 2.0 9.0 0.00 0.00 0.00 41 1008.5
20260506061138 65 165 1.0 13.0 0.00 0.00 0.00 41 1008.5
20260506060638 65 149 3.0 8.0 0.00 0.00 0.00 41 1008.6
20260506060138 65 189 5.0 10.0 0.00 0.00 0.00 41 1008.7
20260506051135 65 289 6.0 12.0 0.00 0.00 0.00 40 1008.9
20260506050634 65 210 5.0 14.0 0.00 0.00 0.00 39 1008.8
20260506050134 65 205 7.0 14.0 0.00 0.00 0.00 39 1008.8
20260506045134 65 227 6.0 13.0 0.00 0.00 0.00 39 1008.7
20260506044633 65 240 7.0 8.0 0.00 0.00 0.00 40 1008.8
20260506044133 64 227 8.0 11.0 0.00 0.00 0.00 40 1008.7
20260506043633 63 223 1.0 10.0 0.00 0.00 0.00 42 1008.7
20260506043132 61 226 6.0 11.0 0.00 0.00 0.00 45 1008.6
20260506042632 60 143 0.0 2.0 0.00 0.00 0.00 48 1008.6
20260506042132 59 156 0.0 0.0 0.00 0.00 0.00 50 1008.6
20260506041632 58 156 0.0 0.0 0.00 0.00 0.00 50 1008.6
20260506041131 59 156 0.0 0.0 0.00 0.00 0.00 51 1008.6
20260506040631 59 156 0.0 0.0 0.00 0.00 0.00 48 1008.6
20260506040131 59 156 0.0 0.0 0.00 0.00 0.00 47 1008.7
20260506035631 59 156 0.0 0.0 0.00 0.00 0.00 46 1008.7
20260506035130 59 156 0.0 0.0 0.00 0.00 0.00 46 1008.7
20260506034630 59 156 0.0 0.0 0.00 0.00 0.00 45 1008.7
20260506034130 59 156 0.0 1.0 0.00 0.00 0.00 46 1008.7
20260506033629 59 209 0.0 3.0 0.00 0.00 0.00 46 1008.8
20260506033129 59 189 0.0 3.0 0.00 0.00 0.00 46 1008.7
20260506032629 58 98 0.0 1.0 0.00 0.00 0.00 46 1008.7
20260506032129 58 206 1.0 6.0 0.00 0.00 0.00 46 1008.7
20260506031628 58 189 3.0 3.0 0.00 0.00 0.00 46 1008.7
20260506031128 58 115 0.0 1.0 0.00 0.00 0.00 47 1008.7
20260506030628 57 115 1.0 2.0 0.00 0.00 0.00 49 1008.7
20260506030127 56 113 0.0 3.0 0.00 0.00 0.00 50 1008.6
20260506025627 54 106 0.0 5.0 0.00 0.00 0.00 54 1008.7
20260506025127 52 132 0.0 4.0 0.00 0.00 0.00 58 1008.8
20260506024627 51 161 0.0 0.0 0.00 0.00 0.00 63 1008.8
20260506024126 50 161 0.0 0.0 0.00 0.00 0.00 66 1008.8
20260506023626 49 161 0.0 2.0 0.00 0.00 0.00 67 1008.9
20260506023126 49 127 0.0 0.0 0.00 0.00 0.00 67 1008.9
20260506022625 49 127 0.0 0.0 0.00 0.00 0.00 66 1008.9
20260506022125 50 127 0.0 0.0 0.00 0.00 0.00 66 1008.9
20260506021625 50 127 0.0 0.0 0.00 0.00 0.00 66 1008.9
20260506021125 50 127 0.0 0.0 0.00 0.00 0.00 65 1008.8
20260506020624 50 127 0.0 0.0 0.00 0.00 0.00 64 1008.8
20260506020124 50 127 0.0 0.0 0.00 0.00 0.00 63 1008.8
20260506015624 50 127 0.0 0.0 0.00 0.00 0.00 63 1008.7
20260506015123 51 127 0.0 0.0 0.00 0.00 0.00 63 1008.7
20260506014623 51 127 0.0 0.0 0.00 0.00 0.00 62 1008.7
20260506014123 51 127 0.0 0.0 0.00 0.00 0.00 60 1008.8
20260506013623 51 127 0.0 0.0 0.00 0.00 0.00 58 1008.8
20260506013122 52 127 0.0 0.0 0.00 0.00 0.00 57 1008.8
20260506012622 52 127 0.0 0.0 0.00 0.00 0.00 56 1008.8
20260506012122 53 127 0.0 0.0 0.00 0.00 0.00 55 1008.8
20260506011621 53 127 0.0 0.0 0.00 0.00 0.00 54 1008.8
20260506011121 54 127 0.0 0.0 0.00 0.00 0.00 51 1008.7
20260506010621 55 127 0.0 0.0 0.00 0.00 0.00 50 1008.8
20260506010121 56 127 0.0 0.0 0.00 0.00 0.00 47 1008.8
20260506005620 56 127 0.0 0.0 0.00 0.00 0.00 46 1008.8
20260506005120 57 127 0.0 0.0 0.00 0.00 0.00 44 1008.7
20260506004620 57 127 0.0 0.0 0.00 0.00 0.00 43 1008.7